User: anonymous   Login
Location: Waning Moon II Observatory
(30.3730°N, 89.7620°W)
Time: 16:02:51
(UTC-05:00)
Language:

Meteor 1-21 - Orbit

View from above orbital plane
View from above orbital plane
View from above satellite
View from above satellite

Ground track
Ground track

The orbit data is extracted from the following two-line orbital elements,

1 07714U 75023A   18112.84777527  .00000192  00000-0  10503-3 0  9990
2 07714  81.2108 250.1205 0033693 100.7057 259.7909 14.07979935528763
Epoch (UTC): 22 April 2018 20:20:47
Eccentricity: 0.0033693
inclination: 81.2108°
perigee height: 842 km
apogee height: 891 km
right ascension of ascending node: 250.1205°
argument of perigee: 100.7057°
revolutions per day: 14.07979935
mean anomaly at epoch: 259.7909°
orbit number at epoch: 52876

The dashed part of the orbit path shows where the satellite is in the earth's shadow,  

DLR